Zurück zum Katalog

STARLINK-4054

AktivKommunikationVLEO
NORAD 53158·PAYLOAD·🇺🇸 United States

Gestartet Jul 17, 2022 von Cape Canaveral Space Force Station

Loading…

Nächste Überflüge (nächste 24 Stunden)

TLE

AktuellSource: CelesTrak SupGP

Epoche: Sep 15, 2026, 02:02 UTC

1 53158C 22083AC  26258.08520833 -.00012539  00000+0 -35883-3 0  2588
2 53158  53.1592  21.5266 0001094  78.0699  67.3133 15.35398826    18

Verfolge STARLINK-4054 in Echtzeit mit AllMySat

Download on the App Store